DW8231 Weather Reports


Display with metric or nautical units.
time (UTC)temp
F
wind
direction
speed
MPH
gust
MPH
rain 1hr
in
rain 24hr
in
rain mn
in
humidity
%
barometer
mb
20260901222516 85 259 0.0 0.0 0.00 0.00 0.00 50 1010.5
20260901222017 85 259 0.0 0.0 0.00 0.00 0.00 50 1010.5
20260901221515 85 259 0.0 0.0 0.00 0.00 0.00 49 1010.6
20260901221016 86 259 0.0 0.0 0.00 0.00 0.00 49 1010.5
20260901220516 86 258 0.0 0.0 0.00 0.00 0.00 50 1010.5
20260901215516 86 257 0.0 0.0 0.00 0.00 0.00 48 1010.5
20260901215016 86 257 0.0 0.0 0.00 0.00 0.00 48 1010.4
20260901214515 86 255 0.0 0.0 0.00 0.00 0.00 49 1010.4
20260901214016 86 254 0.0 0.0 0.00 0.00 0.00 49 1010.4
20260901213515 86 255 0.0 0.0 0.00 0.00 0.00 48 1010.3
20260901213048 86 254 0.0 0.0 0.00 0.00 0.00 48 1010.3
20260901212518 86 254 0.0 0.0 0.00 0.00 0.00 48 1010.3
20260901212016 86 254 0.0 0.0 0.00 0.00 0.00 47 1010.4
20260901211531 86 254 0.0 0.0 0.00 0.00 0.00 47 1010.3
20260901211014 86 253 0.0 0.0 0.00 0.00 0.00 47 1010.3
20260901210516 86 253 0.0 0.0 0.00 0.00 0.00 47 1010.2
20260901205516 86 255 0.0 0.0 0.00 0.00 0.00 47 1010.5
20260901205015 86 255 0.0 0.0 0.00 0.00 0.00 47 1010.6
20260901204515 86 255 0.0 0.0 0.00 0.00 0.00 47 1010.6
20260901204014 87 256 0.0 0.0 0.00 0.00 0.00 47 1010.8
20260901203516 87 255 0.0 0.0 0.00 0.00 0.00 46 1010.9
20260901203024 87 258 0.0 0.0 0.00 0.00 0.00 45 1010.9
20260901202513 87 261 0.0 0.0 0.00 0.00 0.00 45 1010.8
20260901202015 87 261 0.0 0.0 0.00 0.00 0.00 46 1010.8
20260901201513 87 263 0.0 0.0 0.00 0.00 0.00 47 1010.8
20260901201015 87 264 0.0 0.0 0.00 0.00 0.00 46 1010.8
20260901200515 87 264 0.0 0.0 0.00 0.00 0.00 46 1010.8
20260901195511 87 264 0.0 0.0 0.00 0.00 0.00 45 1010.9
20260901195010 87 264 0.0 0.0 0.00 0.00 0.00 44 1010.9
20260901194510 87 264 0.0 0.0 0.00 0.00 0.00 44 1010.8
20260901194010 87 264 0.0 0.0 0.00 0.00 0.00 43 1011.1
20260901193510 87 263 0.0 0.0 0.00 0.00 0.00 43 1011.1
20260901193010 88 265 0.0 0.0 0.00 0.00 0.00 42 1011.0
20260901192510 88 264 0.0 0.0 0.00 0.00 0.00 43 1011.0
20260901192009 89 263 0.0 0.0 0.00 0.00 0.00 42 1011.0
20260901191513 89 263 0.0 0.0 0.00 0.00 0.00 41 1011.0
20260901191008 90 271 0.0 0.0 0.00 0.00 0.00 42 1010.9
20260901190508 89 271 0.0 0.0 0.00 0.00 0.00 42 1011.0
20260901185507 89 271 0.0 0.0 0.00 0.00 0.00 42 1011.0
20260901185005 89 272 0.0 0.0 0.00 0.00 0.00 42 1011.1
20260901184505 88 272 0.0 0.0 0.00 0.00 0.00 42 1011.1
20260901184003 88 265 0.0 0.0 0.00 0.00 0.00 44 1011.3
20260901183502 87 270 0.0 0.0 0.00 0.00 0.00 44 1011.4
20260901182558 87 271 0.0 0.0 0.00 0.00 0.00 45 1011.5
20260901182058 86 271 0.0 0.0 0.00 0.00 0.00 45 1011.6
20260901181556 86 271 0.0 0.0 0.00 0.00 0.00 45 1011.8
20260901181055 86 271 0.0 0.0 0.00 0.00 0.00 45 1011.8
20260901180554 86 271 0.0 0.0 0.00 0.00 0.00 46 1011.8
20260901180154 85 271 0.0 0.0 0.00 0.00 0.00 47 1011.8
20260901175552 85 271 0.0 0.0 0.00 0.00 0.00 46 1011.9
20260901175052 85 272 0.0 0.0 0.00 0.00 0.00 46 1012.0
20260901174551 85 273 0.0 0.0 0.00 0.00 0.00 47 1012.1
20260901174051 85 279 0.0 0.0 0.00 0.00 0.00 46 1012.1
20260901173550 85 259 0.0 0.0 0.00 0.00 0.00 46 1012.2
20260901173049 86 256 0.0 0.0 0.00 0.00 0.00 47 1012.2
20260901172548 85 255 0.0 0.0 0.00 0.00 0.00 47 1012.3
20260901172047 85 250 0.0 0.0 0.00 0.00 0.00 47 1012.3
20260901171546 85 246 0.0 0.0 0.00 0.00 0.00 46 1012.3
20260901171046 85 261 0.0 0.0 0.00 0.00 0.00 46 1012.3
20260901170543 85 261 0.0 0.0 0.00 0.00 0.00 48 1012.4
20260901170142 84 263 0.0 0.0 0.00 0.00 0.00 49 1012.4
20260901165546 84 263 0.0 0.0 0.00 0.00 0.00 50 1012.4
20260901165041 84 266 0.0 0.0 0.00 0.00 0.00 51 1012.5
20260901164539 84 265 0.0 0.0 0.00 0.00 0.00 51 1012.5
20260901164037 84 265 0.0 0.0 0.00 0.00 0.00 53 1012.6
20260901163536 84 266 0.0 0.0 0.00 0.00 0.00 54 1012.5
20260901163035 83 269 0.0 0.0 0.00 0.00 0.00 54 1012.5
20260901162536 83 274 0.0 0.0 0.00 0.00 0.00 55 1012.4
20260901162034 82 274 0.0 6.0 0.00 0.00 0.00 56 1012.3
20260901161538 81 274 1.0 6.0 0.00 0.00 0.00 57 1012.3
20260901161034 81 275 0.0 3.0 0.00 0.00 0.00 58 1012.2
20260901160534 81 275 1.0 3.0 0.00 0.00 0.00 58 1012.2
20260901160134 80 274 0.0 0.0 0.00 0.00 0.00 60 1012.2
20260901155537 80 274 0.0 0.0 0.00 0.00 0.00 61 1012.3
20260901155034 79 274 0.0 0.0 0.00 0.00 0.00 61 1012.3
20260901154533 79 274 0.0 0.0 0.00 0.00 0.00 62 1012.5
20260901154033 79 274 0.0 0.0 0.00 0.00 0.00 63 1012.5
20260901153534 79 274 0.0 0.0 0.00 0.00 0.00 63 1012.4
20260901153035 79 275 0.0 0.0 0.00 0.00 0.00 63 1012.5
20260901152533 78 275 0.0 0.0 0.00 0.00 0.00 64 1012.4
20260901152033 78 276 0.0 0.0 0.00 0.00 0.00 64 1012.6
20260901151535 78 275 0.0 0.0 0.00 0.00 0.00 66 1012.6
20260901151036 77 277 0.0 0.0 0.00 0.00 0.00 67 1012.6
20260901150533 77 278 0.0 0.0 0.00 0.00 0.00 68 1012.7
20260901150135 76 281 0.0 0.0 0.00 0.00 0.00 70 1012.6
20260901145533 76 283 0.0 0.0 0.00 0.00 0.00 70 1012.7
20260901145033 76 284 0.0 0.0 0.00 0.00 0.00 73 1012.7
20260901144532 75 284 0.0 0.0 0.00 0.00 0.00 74 1012.7
20260901144032 74 284 0.0 0.0 0.00 0.00 0.00 76 1012.7
20260901143533 74 284 0.0 0.0 0.00 0.00 0.00 78 1012.7
20260901143036 73 284 0.0 0.0 0.00 0.00 0.00 79 1012.8
20260901142533 73 284 0.0 0.0 0.00 0.00 0.00 80 1012.9
20260901142031 72 284 0.0 0.0 0.00 0.00 0.00 82 1012.9
20260901141539 72 286 0.0 0.0 0.00 0.00 0.00 84 1012.9
20260901141032 71 290 0.0 0.0 0.00 0.00 0.00 87 1012.9
20260901140531 71 290 0.0 0.0 0.00 0.00 0.00 88 1012.9
20260901140133 70 290 0.0 0.0 0.00 0.00 0.00 90 1012.9
20260901135534 70 290 0.0 0.0 0.00 0.00 0.00 91 1013.0
20260901135033 69 290 0.0 0.0 0.00 0.00 0.00 92 1013.0
20260901134532 69 290 0.0 0.0 0.00 0.00 0.00 92 1013.0
20260901134037 69 290 0.0 0.0 0.00 0.00 0.00 93 1013.0
20260901133533 68 290 0.0 0.0 0.00 0.00 0.00 93 1013.0
20260901133034 68 290 0.0 0.0 0.00 0.00 0.00 93 1012.9
20260901132532 68 290 0.0 0.0 0.00 0.00 0.00 93 1013.0
20260901132032 68 290 0.0 0.0 0.00 0.00 0.00 93 1013.0
20260901131531 67 290 0.0 0.0 0.00 0.00 0.00 93 1012.9
20260901131031 67 290 0.0 0.0 0.00 0.00 0.00 93 1012.9
20260901130531 66 290 0.0 0.0 0.00 0.00 0.00 93 1012.8
20260901130131 66 290 0.0 0.0 0.00 0.00 0.00 93 1012.7
20260901125533 66 290 0.0 0.0 0.00 0.00 0.00 93 1012.7
20260901125029 65 290 0.0 0.0 0.00 0.00 0.00 93 1012.7
20260901124529 65 290 0.0 1.0 0.00 0.00 0.00 93 1012.7
20260901124029 65 290 0.0 1.0 0.00 0.00 0.00 93 1012.7
20260901123527 64 290 0.0 1.0 0.00 0.00 0.00 93 1012.6
20260901123026 64 290 0.0 1.0 0.00 0.00 0.00 93 1012.5
20260901122527 64 290 0.0 1.0 0.00 0.00 0.00 93 1012.4
20260901122025 64 290 0.0 0.0 0.00 0.00 0.00 93 1012.3
20260901121533 63 290 0.0 0.0 0.00 0.00 0.00 93 1012.1
20260901121026 63 290 0.0 0.0 0.00 0.00 0.00 93 1012.1
20260901120523 64 290 0.0 0.0 0.00 0.00 0.00 93 1012.1
20260901120124 64 290 0.0 0.0 0.00 0.00 0.00 93 1012.0
20260901115527 64 290 0.0 0.0 0.00 0.00 0.00 93 1011.9
20260901115025 64 290 0.0 0.0 0.00 0.00 0.00 93 1011.9
20260901114525 64 290 0.0 0.0 0.00 0.00 0.00 92 1012.0
20260901114024 64 290 0.0 2.0 0.00 0.00 0.00 92 1011.8
20260901113524 64 290 0.0 2.0 0.00 0.00 0.00 92 1011.8
20260901113028 64 290 0.0 0.0 0.00 0.00 0.00 92 1011.8
20260901112524 64 290 0.0 0.0 0.00 0.00 0.00 92 1011.7
20260901112024 64 290 0.0 0.0 0.00 0.00 0.00 92 1011.6
20260901111524 64 290 0.0 0.0 0.00 0.00 0.00 92 1011.7
20260901111023 64 290 0.0 0.0 0.00 0.00 0.00 92 1011.7
20260901110523 64 290 0.0 0.0 0.00 0.00 0.00 92 1011.6
20260901110125 64 290 0.0 0.0 0.00 0.00 0.00 92 1011.5
20260901105520 64 290 0.0 0.0 0.00 0.00 0.00 92 1011.5
20260901105020 64 290 0.0 0.0 0.00 0.00 0.00 92 1011.4
20260901104523 64 290 0.0 1.0 0.00 0.00 0.00 92 1011.4
20260901104020 64 290 0.0 1.0 0.00 0.00 0.00 92 1011.5
20260901103518 64 290 0.0 0.0 0.00 0.00 0.00 92 1011.4
20260901103023 65 290 0.0 0.0 0.00 0.00 0.00 92 1011.4
20260901102519 65 290 0.0 0.0 0.00 0.00 0.00 92 1011.3
20260901102019 65 290 0.0 0.0 0.00 0.00 0.00 92 1011.3
20260901101519 65 290 0.0 0.0 0.00 0.00 0.00 92 1011.2
20260901101017 65 290 0.0 0.0 0.00 0.00 0.00 92 1011.4
20260901100520 65 290 0.0 0.0 0.00 0.00 0.00 92 1011.4
20260901100117 65 290 0.0 1.0 0.00 0.00 0.00 91 1011.4
20260901095517 65 290 0.0 1.0 0.00 0.00 0.00 91 1011.3
20260901095020 65 290 0.0 1.0 0.00 0.00 0.00 91 1011.3
20260901094520 65 290 0.0 1.0 0.00 0.00 0.00 91 1011.3
20260901094016 66 290 0.0 0.0 0.00 0.00 0.00 91 1011.4
20260901093519 66 290 0.0 0.0 0.00 0.00 0.00 91 1011.4
20260901093015 66 290 0.0 0.0 0.00 0.00 0.00 91 1011.4
20260901092515 66 290 0.0 0.0 0.00 0.00 0.00 91 1011.4
20260901092015 66 290 0.0 0.0 0.00 0.00 0.00 91 1011.2
20260901091514 66 290 0.0 0.0 0.00 0.00 0.00 91 1011.0
20260901091014 66 290 0.0 0.0 0.00 0.00 0.00 91 1011.2
20260901090516 66 290 0.0 0.0 0.00 0.00 0.00 90 1011.2
20260901090113 66 290 0.0 0.0 0.00 0.00 0.00 90 1011.4
20260901085513 66 290 0.0 0.0 0.00 0.00 0.00 90 1011.4
20260901085013 66 290 0.0 0.0 0.00 0.00 0.00 90 1011.4
20260901084513 67 290 0.0 0.0 0.00 0.00 0.00 90 1011.3
20260901084016 67 290 0.0 0.0 0.00 0.00 0.00 90 1011.2
20260901083512 67 290 0.0 0.0 0.00 0.00 0.00 90 1011.2
20260901083021 67 290 0.0 0.0 0.00 0.00 0.00 90 1011.2
20260901082510 67 290 0.0 0.0 0.00 0.00 0.00 90 1011.2
20260901082010 67 290 0.0 0.0 0.00 0.00 0.00 90 1011.2
20260901081509 68 290 0.0 0.0 0.00 0.00 0.00 89 1011.1
20260901081009 68 290 0.0 0.0 0.00 0.00 0.00 89 1011.1
20260901080508 68 290 0.0 0.0 0.00 0.00 0.00 89 1011.2
20260901080110 68 290 0.0 0.0 0.00 0.00 0.00 89 1011.2
20260901075507 68 290 0.0 0.0 0.00 0.00 0.00 89 1011.1
20260901075007 68 290 0.0 0.0 0.00 0.00 0.00 89 1011.2
20260901074507 69 290 0.0 0.0 0.00 0.00 0.00 89 1011.3
20260901074006 69 290 0.0 0.0 0.00 0.00 0.00 88 1011.4
20260901073504 69 290 0.0 0.0 0.00 0.00 0.00 88 1011.4
20260901073004 69 290 0.0 0.0 0.00 0.00 0.00 88 1011.4
20260901072504 69 290 0.0 0.0 0.00 0.00 0.00 88 1011.6
20260901072003 69 290 0.0 0.0 0.00 0.00 0.00 88 1011.6
20260901071503 70 290 0.0 0.0 0.00 0.00 0.00 88 1011.6
20260901071001 70 290 0.0 0.0 0.00 0.00 0.00 88 1011.7
20260901070502 70 290 0.0 0.0 0.00 0.00 0.00 87 1011.7
20260901070109 70 290 0.0 0.0 0.00 0.00 0.00 87 1011.6
20260901065502 70 290 0.0 0.0 0.00 0.00 0.00 87 1011.7
20260901065005 70 290 0.0 0.0 0.00 0.00 0.00 86 1011.6
20260901064503 70 290 0.0 0.0 0.00 0.00 0.00 85 1011.8
20260901064002 70 290 0.0 0.0 0.00 0.00 0.00 85 1011.9
20260901063503 70 290 0.0 0.0 0.00 0.00 0.00 84 1011.8
20260901063001 70 290 0.0 0.0 0.00 0.00 0.00 84 1011.8
20260901062600 70 290 0.0 0.0 0.00 0.00 0.00 84 1011.9
20260901062059 70 290 0.0 0.0 0.00 0.00 0.00 84 1011.7
20260901061600 70 290 0.0 0.0 0.00 0.00 0.00 83 1011.7
20260901061059 70 290 0.0 0.0 0.00 0.00 0.00 82 1011.6
20260901060558 70 290 0.0 0.0 0.00 0.00 0.00 81 1011.6
20260901060057 70 290 0.0 0.0 0.00 0.00 0.00 79 1011.6
20260901055600 70 290 0.0 0.0 0.00 0.00 0.00 79 1011.6
20260901055056 71 290 0.0 0.0 0.00 0.00 0.00 79 1011.6
20260901054555 71 290 0.0 0.0 0.00 0.00 0.00 79 1011.5
20260901054055 71 290 0.0 0.0 0.00 0.00 0.00 78 1011.4
20260901053553 71 290 0.0 0.0 0.00 0.00 0.00 78 1011.3
20260901053055 71 290 0.0 0.0 0.00 0.00 0.00 78 1011.2
20260901052552 71 290 0.0 0.0 0.00 0.00 0.00 77 1011.2
20260901052051 71 290 0.0 0.0 0.00 0.00 0.00 77 1011.1
20260901051551 71 290 0.0 0.0 0.00 0.00 0.00 77 1011.0
20260901051050 71 290 0.0 0.0 0.00 0.00 0.00 77 1010.9
20260901050550 71 290 0.0 0.0 0.00 0.00 0.00 77 1010.8
20260901050050 71 290 0.0 0.0 0.00 0.00 0.00 77 1010.6
20260901045550 71 290 0.0 0.0 0.00 0.00 0.00 77 1010.6
20260901045050 71 290 0.0 0.0 0.00 0.00 0.00 78 1010.6
20260901044550 72 290 0.0 0.0 0.00 0.00 0.00 78 1010.6
20260901044048 72 290 0.0 0.0 0.00 0.00 0.00 78 1010.5
20260901043547 72 290 0.0 0.0 0.00 0.00 0.00 78 1010.5
20260901043047 72 290 0.0 0.0 0.00 0.00 0.00 77 1010.6
20260901042547 72 290 0.0 0.0 0.00 0.00 0.00 77 1010.7
20260901042045 73 290 0.0 0.0 0.00 0.00 0.00 76 1010.6
20260901041605 73 290 0.0 0.0 0.00 0.00 0.00 76 1010.7
20260901041045 73 290 0.0 0.0 0.00 0.00 0.00 75 1010.7
20260901040545 73 290 0.0 0.0 0.00 0.00 0.00 75 1010.8
20260901040043 73 290 0.0 0.0 0.00 0.00 0.00 73 1010.8
20260901035548 73 290 0.0 0.0 0.00 0.00 0.00 73 1010.8
20260901035044 73 290 0.0 0.0 0.00 0.00 0.00 73 1010.9
20260901034542 74 290 0.0 0.0 0.00 0.00 0.00 72 1010.9
20260901034046 74 290 0.0 0.0 0.00 0.00 0.00 71 1010.8
20260901033540 74 290 0.0 0.0 0.00 0.00 0.00 71 1010.7
20260901033039 74 290 0.0 0.0 0.00 0.00 0.00 71 1010.6
20260901032538 74 290 0.0 0.0 0.00 0.00 0.00 70 1010.6
20260901032038 75 290 0.0 0.0 0.00 0.00 0.00 70 1010.6
20260901031536 75 290 0.0 1.0 0.00 0.00 0.00 69 1010.5
20260901031038 75 290 0.0 1.0 0.00 0.00 0.00 69 1010.5
20260901030538 75 290 0.0 0.0 0.00 0.00 0.00 69 1010.4
20260901030033 76 290 0.0 1.0 0.00 0.00 0.00 68 1010.4
20260901025532 76 290 0.0 0.0 0.00 0.00 0.00 68 1010.4
20260901025034 76 290 0.0 0.0 0.00 0.00 0.00 67 1010.4
20260901024531 76 290 0.0 0.0 0.00 0.00 0.00 67 1010.3
20260901024030 76 290 0.0 0.0 0.00 0.00 0.00 67 1010.3
20260901023528 77 290 0.0 1.0 0.00 0.00 0.00 67 1010.3
20260901023039 77 290 0.0 1.0 0.00 0.00 0.00 66 1010.3
20260901022528 77 290 0.0 0.0 0.00 0.00 0.00 66 1010.3
20260901022027 77 290 0.0 0.0 0.00 0.00 0.00 66 1010.3
20260901021528 77 290 0.0 0.0 0.00 0.00 0.00 66 1010.1
20260901021024 78 290 0.0 0.0 0.00 0.00 0.00 65 1010.1
20260901020523 78 290 0.0 0.0 0.00 0.00 0.00 64 1010.1
20260901020023 79 290 0.0 1.0 0.00 0.00 0.00 63 1010.0
20260901015522 79 290 0.0 1.0 0.00 0.00 0.00 63 1010.0
20260901015022 80 290 0.0 2.0 0.00 0.00 0.00 62 1009.9
20260901014520 80 290 0.0 2.0 0.00 0.00 0.00 60 1009.8
20260901014019 81 290 0.0 0.0 0.00 0.00 0.00 60 1009.7
20260901013519 81 290 0.0 0.0 0.00 0.00 0.00 59 1009.6
20260901013016 81 290 0.0 0.0 0.00 0.00 0.00 59 1009.6
20260901012515 81 290 0.0 0.0 0.00 0.00 0.00 58 1009.4
20260901012018 82 290 0.0 0.0 0.00 0.00 0.00 58 1009.3
20260901011514 82 290 0.0 0.0 0.00 0.00 0.00 58 1009.4
20260901011014 82 290 0.0 0.0 0.00 0.00 0.00 57 1009.4
20260901010513 82 290 0.0 0.0 0.00 0.00 0.00 57 1009.4
20260901010013 83 290 0.0 2.0 0.00 0.00 0.00 56 1009.4
20260901005550 83 290 0.0 2.0 0.00 0.00 0.00 56 1009.4
20260901005049 83 290 0.0 3.0 0.00 0.00 0.00 56 1009.2
20260901004551 84 290 0.0 3.0 0.00 0.00 0.00 55 1009.2
20260901004049 84 290 0.0 4.0 0.00 0.00 0.00 55 1009.2
20260901003547 84 290 0.0 4.0 0.00 0.00 0.00 54 1009.2
20260901003048 84 290 1.0 3.0 0.00 0.00 0.00 54 1009.2
20260901002613 85 290 0.0 2.0 0.00 0.00 0.00 55 1009.2
20260901002039 85 290 0.0 2.0 0.00 0.00 0.00 55 1009.1
20260901001541 86 290 0.0 2.0 0.00 0.00 0.00 55 1009.0
20260901001041 86 290 0.0 2.0 0.00 0.00 0.00 55 1009.0
20260901000537 87 290 0.0 2.0 0.00 0.00 0.00 54 1009.0
20260901000037 87 290 0.0 2.0 0.00 0.00 0.00 54 1009.0
20260831235540 87 290 0.0 1.0 0.00 0.00 0.00 53 1008.9
20260831235037 88 290 0.0 1.0 0.00 0.00 0.00 53 1009.0
20260831234537 88 290 0.0 0.0 0.00 0.00 0.00 52 1008.9
20260831234037 89 290 0.0 0.0 0.00 0.00 0.00 52 1009.0
20260831233537 89 290 0.0 0.0 0.00 0.00 0.00 52 1009.0
20260831233037 89 290 0.0 0.0 0.00 0.00 0.00 50 1008.9
20260831232037 90 290 0.0 0.0 0.00 0.00 0.00 48 1008.9
20260831231545 90 290 0.0 0.0 0.00 0.00 0.00 48 1008.9
20260831231036 90 290 0.0 7.0 0.00 0.00 0.00 47 1009.0
20260831230538 91 290 0.0 7.0 0.00 0.00 0.00 45 1008.8
20260831230039 91 288 2.0 5.0 0.00 0.00 0.00 44 1008.8
20260831225536 91 286 0.0 6.0 0.00 0.00 0.00 45 1008.8
20260831225038 91 286 1.0 5.0 0.00 0.00 0.00 43 1008.8
20260831224535 92 286 0.0 5.0 0.00 0.00 0.00 43 1008.7
20260831224036 92 286 0.0 4.0 0.00 0.00 0.00 42 1008.6
20260831223536 92 285 1.0 4.0 0.00 0.00 0.00 44 1008.6
20260831223037 92 286 0.0 3.0 0.00 0.00 0.00 42 1008.5